Theta_e
315 315 315 317 317 317 317 319 321 319 319 320 322 325 325 322 319 320 320 319 319 319 315 320 320 312 313 315 316 316 324 328 327 326 326 321 323 317 317 325 327 328 326 330 335
314 315 315 316 317 317 317 316 318 320 319 321 324 322 321 320 320 320 321 319 320 320 317 318 322 313 313 314 316 319 323 323 321 322 321 320 322 319 320 325 324 327 330 333 334
313 313 314 313 315 316 316 314 316 320 320 320 323 322 321 319 321 321 321 323 320 319 321 319 319 312 313 313 315 317 321 317 318 317 316 318 319 317 321 324 325 325 330 333 333
311 310 312 312 314 315 315 315 313 315 320 319 322 323 321 321 329 322 322 322 321 321 322 320 312 315 315 316 314 318 316 317 316 315 315 317 317 317 319 323 318 323 329 333 334
310 309 309 310 312 314 312 313 316 314 315 319 321 322 320 324 322 313 321 323 320 320 319 322 314 312 324 314 314 317 313 315 314 314 314 314 317 319 317 317 314 322 330 333 334
308 308 308 309 311 313 312 311 316 316 315 317 320 321 321 326 321 314 322 321 320 318 319 321 322 312 312 317 319 315 314 313 313 314 314 315 315 314 317 317 320 326 330 332 333
307 307 307 307 310 312 311 309 312 314 314 316 320 320 322 323 321 318 318 323 323 320 318 321 318 320 312 314 313 312 313 313 313 314 315 314 315 315 316 318 321 325 329 330 331
307 305 304 306 309 311 311 308 308 307 313 312 318 321 323 319 319 319 320 322 322 317 316 315 314 315 315 310 311 314 314 314 314 313 313 314 319 318 315 317 320 324 327 331 331
306 305 305 305 307 310 311 308 307 308 312 312 318 320 323 316 317 316 317 321 319 316 318 315 316 316 316 311 312 312 319 316 314 312 313 315 319 316 314 316 318 322 326 328 330
305 305 305 305 307 309 310 310 308 310 311 312 313 322 312 317 315 314 315 317 310 314 313 312 313 317 317 313 324 314 317 314 316 313 312 316 318 314 312 315 317 319 323 327 328
304 304 304 305 308 308 308 309 310 312 314 313 317 321 315 314 315 312 313 311 310 313 315 313 316 318 322 315 323 316 319 316 313 311 314 316 317 318 311 312 316 316 317 324 326
304 304 305 307 307 307 308 308 309 311 314 312 312 316 314 316 314 312 313 313 312 313 309 312 317 314 317 321 314 314 314 315 311 309 311 314 315 316 313 312 313 316 316 316 319
304 304 306 306 306 307 308 307 308 312 315 315 312 314 313 317 316 313 315 312 313 313 311 314 316 311 309 310 311 313 316 315 315 310 309 311 314 314 313 312 311 310 312 313 315
303 304 306 306 306 307 308 308 308 309 314 314 314 317 312 316 315 311 313 313 312 314 312 309 307 310 312 312 313 313 310 312 311 313 315 309 317 316 316 313 311 313 313 312 312
304 305 305 305 306 306 306 307 306 310 317 314 315 312 314 319 311 312 311 311 312 312 310 313 309 310 312 313 311 314 309 311 310 313 312 310 313 315 308 313 314 314 315 314 314
302 303 303 305 305 306 307 308 308 311 318 313 313 315 317 314 313 310 309 308 310 311 310 308 307 310 312 306 311 305 308 308 308 310 313 313 312 314 312 312 314 315 315 315 314
301 301 301 303 304 303 303 308 309 317 310 312 311 313 317 315 312 311 311 309 311 312 313 309 308 306 307 308 306 308 312 312 313 313 313 305 308 313 312 311 312 313 312 309 309
301 300 300 301 301 303 305 306 310 314 313 310 312 316 320 314 311 311 311 310 309 312 312 311 310 307 307 311 309 310 313 313 317 313 312 304 310 312 310 308 307 306 307 308 309
301 301 301 302 302 302 305 306 311 313 311 313 315 317 314 315 313 311 311 310 310 311 314 312 311 306 305 305 309 309 311 309 308 303 312 310 308 308 310 307 306 305 305 306 309
300 299 299 299 300 302 304 305 310 308 310 313 317 319 316 313 314 314 312 312 312 308 308 310 310 307 305 306 305 308 308 309 309 317 314 308 308 312 310 308 306 306 306 307 309
299 300 300 300 301 302 303 304 304 308 308 315 318 319 316 315 314 315 314 312 312 308 305 308 310 308 306 308 309 308 309 307 309 312 318 312 310 307 307 306 306 307 306 307 309
299 302 301 301 303 303 303 304 304 307 309 310 316 317 316 316 315 315 314 314 311 308 308 309 311 310 308 306 305 309 310 309 312 310 306 309 311 303 305 306 305 305 304 307 309
299 301 301 302 304 304 304 305 305 308 310 309 314 314 316 317 316 316 315 310 311 308 308 308 311 313 309 308 306 307 306 309 308 309 309 316 311 302 305 306 305 304 303 304 306
298 301 303 304 305 304 304 307 306 306 309 310 311 311 316 317 315 316 315 312 311 309 309 310 310 313 314 312 309 308 307 308 308 313 310 310 310 306 307 307 305 303 303 304 306
296 300 303 307 306 305 305 306 307 306 308 309 308 312 316 316 313 314 315 311 311 309 309 309 315 307 306 307 309 309 308 307 308 309 310 310 308 308 308 308 307 306 305 305 306
299 297 301 302 306 305 307 307 307 307 309 308 311 312 314 314 314 313 313 313 312 308 308 307 314 308 309 306 308 309 308 307 308 309 309 307 308 307 306 306 306 306 306 306 306
295 296 300 303 306 306 307 308 310 308 309 309 311 312 313 313 312 311 312 310 310 311 309 312 311 315 313 307 311 313 309 308 309 309 309 309 309 306 304 306 307 306 306 306 306
Wind_Speed
17 17 18 20 20 19 21 16 20 17 15 17 19 19 20 17 22 18 8 9 8 15 15 8 5 2 4 3 1 2 5 8 7 6 3 7 9 4 1 7 3 6 0 4 20
17 16 15 17 21 19 20 20 15 19 16 19 21 20 20 20 16 21 24 15 14 9 23 5 3 9 2 2 2 5 6 9 5 5 3 7 8 9 6 7 6 7 5 12 20
17 16 15 16 21 22 20 23 22 15 17 20 23 21 16 23 8 10 26 28 20 13 11 14 14 2 0 1 3 5 6 6 5 4 3 8 8 6 6 9 12 14 14 18 21
19 16 14 14 17 23 21 23 26 23 18 20 26 26 22 22 7 9 25 30 26 16 11 14 3 9 5 7 4 5 4 5 5 6 5 5 6 7 12 5 3 8 17 21 21
21 19 18 14 16 20 21 19 21 28 22 20 27 27 28 7 6 0 25 33 27 20 20 6 10 6 12 6 7 5 3 5 5 5 3 5 8 7 11 7 1 9 16 17 21
23 22 19 16 13 20 21 21 10 16 24 24 31 29 14 20 9 11 20 35 31 20 14 17 10 3 5 8 11 7 6 3 5 5 4 5 4 5 7 11 7 11 15 15 20
23 21 21 20 15 19 22 18 21 18 16 13 33 37 12 20 17 17 18 29 32 33 12 19 10 10 7 4 2 6 6 3 6 7 5 5 4 12 6 12 11 12 12 12 15
27 21 20 20 16 18 21 19 15 21 35 28 21 37 7 16 15 16 16 18 23 17 13 14 7 3 4 3 4 9 6 6 8 8 3 6 12 14 12 13 14 11 10 12 14
26 23 21 20 20 17 21 18 15 23 29 34 23 25 12 15 12 21 17 17 19 12 10 13 3 1 2 8 4 4 11 12 5 8 4 10 9 1 8 12 13 13 12 12 12
27 24 23 21 23 18 21 17 11 21 24 23 29 14 8 11 12 24 16 21 8 14 5 6 3 2 5 11 15 10 10 8 12 8 7 11 13 2 7 9 11 11 10 11 13
26 24 25 22 22 20 20 9 2 7 12 11 4 6 17 17 24 11 22 14 7 4 5 6 5 15 23 13 12 16 13 11 11 5 8 14 13 13 5 7 11 11 11 12 14
25 25 22 23 22 20 22 7 15 4 8 18 23 19 21 22 7 14 26 7 6 6 3 6 12 14 18 19 10 13 13 11 3 4 6 6 15 14 9 7 12 13 12 14 13
25 22 22 22 19 19 24 31 20 10 3 9 19 18 11 25 12 13 19 15 14 15 13 14 8 13 9 11 15 12 17 12 5 5 2 1 13 13 9 12 9 10 10 11 16
25 24 24 23 14 14 15 24 23 21 3 5 10 8 7 13 9 23 21 12 5 20 9 6 3 17 13 18 17 11 6 8 9 9 8 5 6 15 21 13 9 15 15 16 15
24 25 26 25 10 11 7 17 27 6 6 14 8 11 11 22 27 19 24 6 17 16 9 10 12 16 18 22 15 5 10 8 3 7 2 5 6 9 2 13 20 20 16 17 17
24 24 21 15 9 11 11 13 18 5 9 7 9 11 12 14 16 20 11 7 8 13 10 2 3 12 9 3 12 15 12 7 3 1 8 15 10 8 8 17 20 18 20 21 17
24 23 23 15 6 13 12 3 5 6 7 8 6 14 22 17 17 32 24 16 11 9 10 5 4 4 5 10 7 7 17 5 6 6 7 2 7 12 10 12 14 11 11 9 7
21 17 19 19 20 7 10 4 8 3 7 4 10 21 17 21 23 28 29 22 14 15 18 14 8 12 6 13 11 16 17 5 7 5 4 2 8 4 12 8 7 7 3 5 4
17 10 7 16 16 16 3 12 4 4 8 14 16 22 6 13 13 21 25 28 15 17 13 16 9 3 5 5 16 13 12 5 6 1 2 5 4 11 7 7 7 6 8 9 5
12 8 12 20 20 12 5 20 7 9 7 19 14 13 8 10 18 18 27 23 15 13 3 11 7 5 3 5 2 12 11 6 2 5 5 4 4 7 4 4 1 5 11 9 6
9 3 8 25 25 6 10 11 19 11 6 17 16 9 13 15 20 24 33 22 26 18 5 15 6 6 6 10 17 7 11 2 5 3 4 2 4 4 3 3 4 4 7 11 11
4 3 20 38 7 7 13 11 19 12 13 11 16 14 23 26 19 19 27 17 24 20 16 6 7 8 14 4 3 12 14 15 7 5 1 1 3 3 5 7 7 8 6 9 9
3 3 29 31 9 13 14 17 15 15 10 9 14 15 19 17 11 16 18 4 29 17 19 10 4 7 6 3 3 14 9 18 3 2 7 5 3 2 3 4 6 7 5 7 8
3 3 5 10 8 23 24 18 20 8 15 17 9 13 23 18 9 17 14 15 20 16 6 6 3 8 14 19 9 10 13 15 12 5 6 14 5 3 3 4 4 5 8 8 9
3 6 4 6 14 20 27 22 25 22 12 21 8 24 26 15 11 14 17 10 16 14 5 3 5 3 5 4 12 18 19 19 21 18 13 14 13 8 10 9 9 8 10 11 11
5 4 4 11 26 30 28 21 28 27 12 9 18 27 26 20 19 26 19 18 19 11 14 1 4 4 3 5 4 11 16 20 25 21 22 8 10 4 4 6 8 10 10 10 11
7 5 3 11 19 25 25 23 25 21 23 20 23 22 29 24 10 15 14 13 15 20 19 14 6 4 4 2 6 1 19 19 18 22 27 19 15 9 7 10 11 13 12 11 10
Wind_Direction
228 235 240 234 234 235 230 221 232 228 236 228 222 220 227 211 217 196 191 167 200 196 190 186 74 51 113 107 133 160 199 208 193 195 168 154 187 160 118 138 187 164 146 102 152
224 229 236 236 232 230 230 223 226 230 228 219 211 207 209 194 207 224 203 170 161 193 190 209 283 330 72 122 151 190 209 200 178 196 181 173 206 164 180 165 191 169 133 144 153
222 226 234 232 229 228 237 235 233 233 222 218 208 186 179 200 209 223 216 203 166 189 194 192 192 295 244 172 173 168 204 166 195 194 184 174 192 180 189 200 202 196 168 164 165
216 226 232 238 226 228 235 239 240 237 224 226 213 199 172 184 232 215 203 190 178 188 156 161 207 164 207 172 164 185 197 176 146 180 159 197 152 196 213 217 327 195 170 165 178
217 227 235 236 226 224 232 242 235 229 234 229 219 211 178 211 247 178 193 183 170 174 190 182 172 170 201 178 142 211 160 183 148 167 188 148 211 208 219 227 33 157 166 178 186
215 220 234 233 229 221 224 221 195 206 224 238 217 203 197 208 203 160 172 178 182 180 179 192 211 242 133 189 188 180 170 166 185 187 172 208 208 207 222 178 159 173 184 188 193
214 212 224 232 231 223 227 228 222 233 228 227 215 199 225 195 195 181 182 191 192 190 181 209 224 212 156 132 157 146 138 142 204 187 200 187 198 225 181 175 178 190 194 197 201
209 215 223 233 228 219 223 229 227 248 238 241 239 199 221 186 180 174 162 185 183 164 190 165 189 190 183 102 126 158 168 181 182 176 181 196 237 224 181 179 193 195 197 198 204
207 211 216 225 218 211 208 217 221 232 224 226 251 191 222 158 181 160 162 150 160 158 130 147 60 17 80 156 158 189 186 204 181 200 159 203 240 127 178 195 199 200 204 205 204
194 202 215 221 216 214 206 202 226 227 220 231 258 203 169 172 151 147 147 140 99 115 80 86 126 172 200 195 191 155 185 198 203 181 209 204 240 200 194 206 211 206 210 211 211
203 209 218 217 204 204 201 178 153 225 177 208 270 247 149 136 139 148 139 97 93 18 173 149 156 196 199 200 189 175 184 187 199 163 197 221 229 231 188 219 210 203 209 217 225
195 203 205 199 197 202 194 202 213 167 197 215 252 261 152 144 116 143 140 113 136 167 159 150 212 196 177 196 186 172 173 189 134 140 204 234 243 243 215 230 222 223 206 219 223
192 191 191 190 190 195 199 213 202 218 257 204 223 241 169 169 147 166 153 128 161 170 223 169 198 161 159 163 167 180 191 185 204 139 164 243 258 236 225 231 230 239 241 232 227
190 193 181 178 173 185 216 216 214 231 250 228 200 208 168 170 141 161 166 124 156 184 221 237 151 166 177 194 189 179 197 159 141 174 219 198 256 224 226 216 218 234 227 235 231
176 169 173 180 159 182 185 207 214 179 212 166 168 148 173 188 130 179 178 77 155 158 166 210 182 164 180 193 190 170 145 146 154 214 261 184 244 236 200 224 226 226 228 233 235
173 179 173 182 213 167 145 186 197 186 211 181 156 158 164 178 148 144 153 113 139 164 193 331 261 180 170 121 180 138 114 82 92 169 249 234 232 224 208 222 233 224 223 229 236
176 186 190 188 199 217 224 187 227 241 155 165 189 157 178 171 134 154 165 161 150 138 169 233 181 142 150 138 140 171 160 155 196 208 240 117 224 251 239 233 236 244 229 220 212
171 176 197 207 208 142 142 227 230 181 182 131 161 161 182 152 156 165 159 168 170 178 155 177 193 183 174 194 174 179 183 179 178 193 188 115 232 224 246 277 229 218 169 166 176
163 171 186 200 185 184 186 213 236 259 154 155 166 152 156 145 140 167 176 172 170 177 155 181 191 174 216 153 160 180 207 136 106 67 229 201 256 270 243 239 225 217 221 217 191
147 165 212 199 181 161 193 227 221 216 291 168 166 180 145 157 154 174 178 190 171 199 149 167 139 217 165 139 135 194 144 182 196 158 228 211 262 235 266 213 209 223 216 212 186
126 168 209 180 152 182 201 222 229 249 244 191 172 173 158 153 155 170 178 177 191 181 133 159 132 169 172 211 180 155 190 176 147 167 206 202 234 212 227 262 259 256 212 197 181
139 184 164 155 166 188 209 220 202 250 223 272 193 166 173 170 166 176 183 180 182 166 177 176 115 156 190 72 297 205 198 192 192 181 186 15 261 149 238 256 242 244 217 183 171
159 220 165 171 182 189 197 229 211 218 213 255 193 193 165 170 159 196 176 132 177 170 171 170 158 115 146 274 196 211 198 199 139 109 189 172 206 162 214 232 236 236 189 168 163
154 209 177 198 213 186 191 201 209 209 224 231 221 174 165 189 132 179 160 179 193 183 138 111 127 176 190 219 134 194 194 194 195 209 152 224 216 238 200 205 191 167 170 170 173
173 223 181 212 198 195 189 188 203 216 226 219 244 176 172 169 153 174 163 153 181 180 147 117 107 95 17 130 167 183 181 179 198 208 205 221 211 208 199 192 189 176 171 171 175
168 201 183 251 210 189 190 202 199 208 172 214 218 176 176 177 188 173 164 171 170 181 180 7 126 117 35 45 117 175 183 186 207 208 236 237 239 195 179 160 187 189 182 181 181
211 259 281 263 208 190 186 179 195 189 208 226 218 172 184 191 185 156 159 143 152 173 180 182 133 130 126 53 90 70 204 198 210 208 220 221 216 177 190 199 206 200 194 193 187